C/2023 R1 ( PanSTARRS )

Japanese version
Home page
Updated on March 11, 2025

---------------------------------------------------------------------

* Profile

Discovery Date September 7, 2023
Magnitude 20.1 mag
Discoverer Pan-STARRS 2 telescope (Haleakala)

* Pictures

* Orbital Elements

Epoch 2024 Oct. 17.0 TT = JDT 2460600.5
T 2026 Apr. 13.62206 TT                                 Rudenko
q   3.5692721            (2000.0)            P               Q
z  -0.0004957      Peri.  144.28836     +0.07124517     -0.88872746
 +/-0.0000012      Node    62.55434     -0.99187709     -0.01515924
e   1.0017692      Incl.  149.31610     -0.10537537     -0.45818523
From 1062 observations 2023 July 29-2024 Nov. 14, mean residual 0".5.

* Finding Charts

* Magnitudes Graph

        m1 = 5.5 + 5 log d + 10.0 log r

---------------------------------------------------------------------

The orbital elements are published on M.P.E.C. 2024-V192.
The charts are made with StellaNavigator Ver.11 (AstroArts).
The magnitudes graphs are made with Comet for Windows.

---------------------------------------------------------------------

Copyright(C) Seiichi Yoshida (comet@aerith.net). All rights reserved.